User: anonymous   Login
Location: Gouy
(50.0008°N, 3.2556°E)
Time: 04:22:34
(UTC+00:00)
Language:

Cosmos 1954 Rocket - Orbit

View from above orbital plane
View from above orbital plane
View from above satellite
View from above satellite

Ground track
Ground track

The orbit data is extracted from the following two-line orbital elements,

1 19257U 88053B   24194.62868378  .00000433  00000-0  15070-3 0  9992
2 19257  74.0474 147.2223 0019173 120.3278  52.7068 14.38219051889587
Epoch (UTC): 12 July 2024 15:05:18
Eccentricity: 0.0019173
inclination: 74.0474°
perigee height: 750 km
apogee height: 778 km
right ascension of ascending node: 147.2223°
argument of perigee: 120.3278°
revolutions per day: 14.38219051
mean anomaly at epoch: 52.7068°
orbit number at epoch: 88958

The dashed part of the orbit path shows where the satellite is in the earth's shadow,  

DLR